Flag for Turkey Weather past 2 weeks in Bursa, Turkey

Now
66 °F

Partly sunny.


Feels Like: 66 °F
Forecast: 48 / 76 °F
Wind: 9 mph from Northwest

Location: Bursa


UV Index: 3 (Moderate)

Visibility: 13 mi


Pressure: 29.94 "Hg

Humidity: 50%

Dew point: 47 °F

Location of BursaLocation

Historic Weather in Bursa

°F

Bursa temperature yesterday

Maximum temperature yesterday: 65 °F (at 5:00 PM)
Minimum temperature yesterday: 46 °F (at 7:00 AM)
Average temperature yesterday: 58 °F

Past Weeks' High & Low Weather Summary

 TemperatureHumidityPressure
High76 °F (Apr 6, 3:00 PM)100% (Apr 13, 3:00 AM)30.14 "Hg (Apr 13, 3:00 AM)
Low37 °F (Apr 13, 7:00 AM)27% (Apr 5, 4:00 PM)29.64 "Hg (Apr 18, 4:00 AM)
Average57 °F67%29.95 "Hg
* Reported Apr 5 4:00 PM — Apr 20 4:00 PM, Bursa, Weather by CustomWeather, © 2014

Note: Actual official high and low records may vary slightly from our data, if they occured in-between our weather recording intervals... More about our weather records

Advertising

Historic Weather Conditions — Data for Previous 24 hours

 ConditionsComfort  
Time TempWeatherWind HumidityBarometerVisibility
4:00 PM
Apr 20
67 °FPartly sunny.8 mph49%29.95 "Hg12 mi
3:00 PM67 °FPartly sunny.12 mph51%29.97 "Hg12 mi
2:00 PM67 °FPartly sunny.12 mph47%29.97 "Hg12 mi
1:00 PM70 °FScattered clouds.9 mph38%29.97 "Hg12 mi
12:00 PM66 °FScattered clouds.5 mph49%29.99 "Hg9 mi
11:00 AM64 °FScattered clouds.5 mph48%30.00 "Hg9 mi
10:00 AM60 °FScattered clouds.5 mph54%30.01 "Hg9 mi
9:00 AM56 °FScattered clouds.2 mph65%30.03 "Hg9 mi
8:00 AM52 °FPartly sunny.No wind74%30.03 "Hg9 mi
7:00 AM49 °FPartly sunny.2 mph77%30.02 "Hg9 mi
6:00 AM48 °FPassing clouds.2 mph77%30.02 "Hg9 mi
5:00 AM49 °FPassing clouds.5 mph74%30.01 "Hg9 mi
4:00 AM49 °FPassing clouds.2 mph77%30.01 "Hg9 mi
3:00 AM51 °FPassing clouds.3 mph73%30.01 "Hg9 mi
2:00 AM54 °FPassing clouds.5 mph63%30.00 "Hg9 mi
1:00 AM56 °FPassing clouds.3 mph57%30.01 "Hg9 mi
12:00 AM57 °FPassing clouds.2 mph55%30.01 "Hg9 mi
11:00 PM
Apr 19
61 °FPassing clouds.8 mph44%30.00 "Hg12 mi
10:00 PM60 °FPassing clouds.10 mph45%29.97 "Hg12 mi
9:00 PM59 °FPassing clouds.8 mph46%29.96 "Hg12 mi
8:00 PM59 °FPassing clouds.7 mph46%29.96 "Hg12 mi
7:00 PM61 °FPartly sunny.17 mph47%29.96 "Hg12 mi
6:00 PM63 °FPartly sunny.9 mph45%29.93 "Hg12 mi
Weather by CustomWeather, © 2014

See weather overview